{"data":{"norad_id":57360,"intl_designator":"2023-099AJ","name":"STARLINK-6348","alt_names":[],"object_type":"PAYLOAD","status":"ACTIVE","operator":null,"country":"US","launch_date":"2023-07-16","launch_site_code":"AFETR","launch_vehicle":null,"mission":null,"orbit_class":"UNKNOWN","rcs_meters":null,"size_class":null,"mass_kg":null,"dimensions":null,"purposes":["comms"],"wikipedia_slug":null,"has_3d_model":false,"image_url":null,"decayed_at":null,"tle_current":{"epoch":"2026-05-25T01:33:26.966880Z","epoch_age_seconds":62665,"freshness":"FRESH","line1":"1 57360U 23099AJ  26145.06489545  .00000706  00000+0  35183-4 0  9999","line2":"2 57360  43.0027 170.0348 0001753 271.3635  88.7016 15.27579234157889","mean_motion":15.27579234,"eccentricity":0.0001753,"inclination_deg":43.0027,"raan_deg":170.0348,"arg_perigee_deg":271.3635,"mean_anomaly_deg":88.7016,"bstar":3.5183e-5,"rev_number":15788,"period_min":94.266795983429,"perigee_km":481.84862339546,"apogee_km":484.2541560449,"semimajor_km":6861.1883897202,"source":"CELESTRAK","updated_at":"2026-05-25T13:38:18.292567Z"}}}